Date,TemperatureHighF,TemperatureAvgF,TemperatureLowF,DewpointHighF,DewpointAvgF,DewpointLowF,HumidityHigh,HumidityAvg,HumidityLow,PressureMaxIn,PressureMinIn,WindSpeedMaxMPH,WindSpeedAvgMPH,GustSpeedMaxMPH,PrecipitationSumIn
2013-1-1,33,22,5,28,15,1,96,75,64,30.04,29.86,13,4,18,0.00
2013-1-2,27,22,15,18,15,9,83,75,67,30.19,30.00,13,5,18,0.00
2013-1-3,31,24,11,27,20,8,90,85,78,30.18,29.96,15,5,23,0.00
2013-1-4,34,30,26,27,24,20,85,78,75,30.05,29.87,28,13,44,0.00
2013-1-5,35,31,29,29,25,23,84,79,74,30.27,30.03,13,6,21,0.00
2013-1-6,36,35,32,34,32,26,92,89,77,30.10,29.86,13,6,22,0.06
2013-1-7,34,30,25,30,24,21,92,81,73,30.39,30.10,14,5,23,0.01
2013-1-8,37,32,22,31,27,19,91,82,77,30.29,30.14,13,4,20,0.00
2013-1-9,45,34,20,37,29,18,93,81,64,30.44,29.95,27,7,40,0.00
2013-1-10,43,36,30,30,28,26,88,75,59,30.58,30.35,9,2,13,0.00
2013-1-11,51,42,34,47,38,28,92,85,72,30.35,29.83,12,2,20,0.05
2013-1-12,59,51,40,51,47,38,93,86,76,29.96,29.89,15,3,25,0.00
2013-1-13,64,54,48,57,50,45,93,89,77,29.91,29.69,21,4,31,0.53
2013-1-14,48,33,26,46,28,21,93,80,71,30.38,29.72,19,7,24,0.09
2013-1-15,32,28,25,24,22,20,87,78,62,30.40,30.15,10,2,12,0.00
2013-1-16,37,32,27,30,26,23,87,79,70,30.16,29.76,20,5,28,0.01
2013-1-17,35,25,16,31,19,12,89,78,72,30.17,29.83,17,6,25,0.00
2013-1-18,34,22,15,22,14,8,90,73,60,30.45,30.00,14,6,22,0.00
2013-1-19,48,42,34,33,29,22,68,59,48,30.01,29.53,23,10,35,0.00
2013-1-20,48,30,18,37,19,10,87,66,50,30.08,29.43,30,14,48,0.00
2013-1-21,20,18,11,15,10,0,88,71,56,30.06,29.86,17,5,23,0.00
2013-1-22,12,8,6,1,-2,-4,72,62,55,30.20,29.91,24,10,25,0.00
2013-1-23,15,10,3,4,1,-2,83,66,52,30.24,30.10,13,4,15,0.00
2013-1-24,15,8,-8,12,2,-12,88,79,63,30.54,30.09,13,2,16,0.01
2013-1-25,18,9,-8,11,4,-12,97,81,65,30.52,30.08,5,0,7,0.00
2013-1-26,26,14,1,16,9,-2,90,81,61,30.41,30.10,6,0,7,0.02
2013-1-27,29,17,1,20,11,-3,96,80,62,30.57,30.32,8,1,10,0.01
2013-1-28,43,35,23,41,33,18,93,90,78,30.32,29.82,15,4,21,0.35
2013-1-29,57,44,36,55,42,34,93,93,92,30.01,29.65,8,2,17,0.60
2013-1-30,65,58,52,57,52,49,92,80,65,29.65,28.99,20,7,35,0.60
2013-1-31,51,29,22,48,22,12,91,75,50,29.71,29.00,31,15,43,0.11
2013-2-1,22,19,17,17,13,8,90,77,66,30.18,29.70,18,8,25,0.00
2013-2-2,20,18,15,17,14,6,90,83,67,30.17,29.96,16,5,23,0.00
2013-2-3,23,16,1,18,12,-2,92,83,63,29.96,29.79,11,2,17,0.00
2013-2-4,20,16,11,13,10,8,89,77,64,29.97,29.86,13,5,20,0.00
2013-2-5,28,20,10,22,15,7,91,80,62,29.94,29.82,13,2,21,0.01
2013-2-6,27,22,9,24,15,5,86,74,57,30.35,29.86,14,5,21,0.00
2013-2-7,31,23,8,21,16,5,92,75,63,30.37,30.04,10,3,15,0.00
2013-2-8,34,26,18,32,24,16,93,89,79,30.13,29.75,11,4,17,0.00
2013-2-9,21,15,-3,17,12,-7,91,87,83,30.41,30.13,6,2,8,0.00
2013-2-10,40,18,-11,28,10,-14,91,75,45,30.40,29.91,8,1,10,0.28
2013-2-11,50,39,33,42,33,26,92,79,56,29.91,29.55,24,9,36,0.16
2013-2-12,34,32,30,31,27,24,89,79,72,29.95,29.70,19,9,29,0.00
2013-2-13,37,29,17,25,22,15,90,76,60,29.88,29.71,8,2,12,0.00
2013-2-14,38,31,16,36,26,14,93,85,63,29.88,29.73,15,3,26,0.13
2013-2-15,38,30,20,33,23,15,83,76,64,30.06,29.74,21,9,31,0.00
2013-2-16,28,22,12,21,16,8,98,79,55,30.06,29.90,10,2,13,0.00
2013-2-17,21,15,12,19,9,4,98,78,65,30.22,29.90,15,6,22,0.00
2013-2-18,32,20,3,22,12,-1,89,71,50,30.28,29.84,10,2,13,0.01
2013-2-19,42,32,24,38,27,18,91,81,62,29.84,29.52,23,9,36,0.43
2013-2-20,24,21,19,19,14,12,81,73,67,30.09,29.74,23,13,31,0.00
2013-2-21,23,19,15,18,14,10,94,78,70,30.40,30.07,15,6,20,0.00
2013-2-22,34,28,20,31,23,16,89,83,71,30.38,29.95,11,2,14,0.02
2013-2-23,38,34,30,32,29,25,86,82,73,29.96,29.85,12,4,17,0.00
2013-2-24,32,30,28,27,25,24,88,81,76,30.07,29.83,14,6,20,0.00
2013-2-25,35,32,25,29,27,22,90,82,74,30.21,30.07,7,2,10,0.00
2013-2-26,43,34,22,34,27,19,92,78,55,30.20,29.68,12,3,23,0.98
2013-2-27,36,35,34,34,33,32,93,92,91,29.69,29.55,11,2,20,0.45
2013-2-28,36,34,33,34,33,30,93,93,89,29.74,29.50,10,4,16,0.20
2013-3-1,33,28,25,30,24,20,92,84,78,29.95,29.74,11,5,16,0.00
2013-3-2,26,23,21,21,19,17,92,83,77,29.96,29.89,10,4,14,0.00
2013-3-3,24,22,20,22,18,15,91,85,78,29.93,29.86,11,4,16,0.00
2013-3-4,30,25,19,23,20,16,88,80,69,30.07,29.92,14,6,19,0.01
2013-3-5,33,26,16,24,21,13,90,80,68,30.09,29.93,14,3,21,0.00
2013-3-6,40,33,25,33,29,22,89,84,75,30.13,29.93,13,4,20,0.00
2013-3-7,40,34,29,33,30,26,92,86,71,30.27,30.12,7,1,12,0.00
2013-3-8,43,34,23,31,27,21,93,78,55,30.39,30.26,12,2,18,0.01
2013-3-9,49,34,22,37,29,20,93,83,53,30.41,30.16,7,1,12,0.00
2013-3-10,66,49,30,40,32,28,92,58,33,30.16,29.90,14,2,20,0.00
2013-3-11,65,55,46,44,35,32,90,48,34,29.90,29.57,13,3,20,0.15
2013-3-12,47,38,34,44,33,28,90,83,77,29.88,29.65,17,8,24,0.02
2013-3-13,35,31,23,31,26,15,91,82,69,29.98,29.81,18,8,27,0.04
2013-3-14,32,26,21,18,14,10,85,61,43,30.10,29.98,22,9,30,0.00
2013-3-15,37,31,23,32,25,17,89,78,62,30.04,29.74,16,6,24,0.00
2013-3-16,29,26,18,22,19,15,89,75,67,29.99,29.82,10,3,14,0.00
2013-3-17,30,24,17,22,17,11,92,74,49,30.32,29.98,12,3,17,0.00
2013-3-18,35,27,16,32,20,11,90,77,49,30.32,29.63,11,3,17,0.00
2013-3-19,37,32,25,35,26,19,92,80,66,29.83,29.61,20,10,35,0.12
2013-3-20,32,27,24,23,20,16,90,77,59,29.83,29.78,15,7,22,0.00
2013-3-21,29,25,19,27,19,13,92,80,56,29.82,29.71,16,6,25,0.00
2013-3-22,33,28,25,27,25,22,91,86,75,29.94,29.75,18,7,18,0.01
2013-3-23,39,32,26,27,25,23,87,74,55,30.02,29.91,14,6,20,0.02
2013-3-24,38,31,20,30,23,18,92,74,57,30.02,29.69,11,3,16,0.00
2013-3-25,42,35,31,32,28,24,85,75,62,29.73,29.59,12,4,18,0.00
2013-3-26,47,39,31,33,29,25,89,70,43,29.94,29.73,10,3,14,0.00
2013-3-27,43,35,31,35,31,26,92,83,65,30.05,29.92,12,4,17,0.06
2013-3-28,42,37,34,35,33,27,93,85,56,30.19,30.04,11,4,15,0.00
2013-3-29,49,39,29,34,32,26,91,77,49,30.19,30.12,14,3,20,0.00
2013-3-30,49,37,25,36,28,23,100,73,40,30.20,30.00,14,2,20,0.00
2013-3-31,59,44,31,43,34,28,92,71,37,30.00,29.56,15,4,22,0.04
2013-4-1,45,34,27,42,26,17,92,72,49,29.96,29.54,21,9,29,0.01
2013-4-2,34,29,24,24,18,15,78,65,51,30.12,29.95,21,9,35,0.00
2013-4-3,35,30,26,20,18,15,71,61,45,30.39,30.12,18,8,26,0.00
2013-4-4,50,34,20,26,19,6,91,59,21,30.35,29.90,14,4,22,0.00
2013-4-5,42,36,29,30,24,17,84,61,49,30.16,29.87,13,4,21,0.00
2013-4-6,51,35,19,28,21,16,91,60,29,30.30,29.96,7,1,10,0.00
2013-4-7,66,54,40,46,35,24,73,52,33,30.01,29.67,29,9,46,0.00
2013-4-8,60,45,29,52,37,26,92,75,49,30.07,29.70,19,2,31,0.29
2013-4-9,58,49,45,49,44,41,92,84,61,30.08,29.75,18,5,25,0.69
2013-4-10,48,44,39,46,42,37,93,93,91,30.02,29.81,13,5,20,0.71
2013-4-11,39,35,33,37,32,30,92,90,77,30.09,29.86,12,5,20,0.57
2013-4-12,49,39,34,47,37,31,93,91,82,29.86,29.46,18,7,30,0.60
2013-4-13,42,40,38,39,35,33,91,84,72,29.91,29.74,20,10,30,0.00
2013-4-14,46,40,34,35,30,28,88,69,55,30.14,29.91,14,5,20,0.00
2013-4-15,70,55,37,52,42,29,77,61,46,30.11,29.93,15,4,22,0.00
2013-4-16,63,57,44,56,50,41,92,80,60,30.19,29.89,18,6,28,0.10
2013-4-17,56,46,33,41,35,31,93,69,47,30.33,30.15,13,3,20,0.00
2013-4-18,82,64,44,62,51,33,83,64,48,30.16,29.60,18,6,29,0.02
2013-4-19,72,56,38,60,47,31,89,72,61,29.75,29.28,26,10,41,0.06
2013-4-20,41,36,31,34,28,22,90,71,57,30.40,29.70,22,11,36,0.04
2013-4-21,46,35,23,30,24,20,91,65,48,30.67,30.40,12,2,15,0.00
2013-4-22,63,45,27,37,29,20,91,56,28,30.55,30.27,16,1,21,0.00
2013-4-23,67,51,34,42,35,28,88,56,33,30.27,29.86,8,1,12,0.00
2013-4-24,62,52,37,56,44,33,92,75,46,30.00,29.58,17,6,26,0.57
2013-4-25,52,42,31,39,34,27,93,76,43,30.38,30.00,17,5,26,0.02
2013-4-26,54,44,33,40,34,26,93,70,40,30.46,30.29,12,2,16,0.00
2013-4-27,70,51,33,44,37,31,92,63,30,30.40,30.16,9,1,15,0.00
2013-4-28,73,57,41,51,44,38,92,67,30,30.16,29.93,14,2,20,0.05
2013-4-29,63,58,51,54,51,47,91,78,71,29.98,29.89,9,2,13,0.05
2013-4-30,73,63,54,58,53,49,91,71,52,30.14,29.98,10,2,15,0.00
2013-5-1,79,65,54,60,52,48,85,64,42,30.27,30.14,11,2,16,0.00
2013-5-2,78,62,46,50,45,39,92,57,29,30.36,30.19,12,2,17,0.00
2013-5-3,79,64,47,54,47,43,92,60,33,30.24,30.12,12,2,17,0.00
2013-5-4,72,61,46,50,45,36,92,60,33,30.22,30.07,13,2,20,0.00
2013-5-5,76,61,45,54,47,43,92,64,36,30.16,30.01,13,2,18,0.00
2013-5-6,75,59,42,48,42,34,92,60,25,30.11,29.97,10,2,16,0.00
2013-5-7,78,62,46,57,51,44,92,70,41,30.07,29.94,12,2,16,0.00
2013-5-8,70,61,52,61,56,49,92,83,64,29.99,29.88,6,0,8,0.14
2013-5-9,70,61,53,62,57,50,92,86,69,29.91,29.83,7,1,12,0.13
2013-5-10,74,59,48,63,55,46,93,88,63,29.91,29.65,15,2,25,0.29
2013-5-11,61,51,47,59,48,43,93,89,80,29.74,29.61,16,6,25,0.02
2013-5-12,51,43,38,48,36,30,91,78,60,29.93,29.66,21,9,37,0.19
2013-5-13,46,40,34,38,34,30,89,78,63,30.12,29.92,16,6,23,0.02
2013-5-14,56,46,33,44,35,29,93,68,37,30.12,29.88,11,2,16,0.00
2013-5-15,76,60,47,60,50,41,92,71,46,29.88,29.49,25,4,35,0.00
2013-5-16,73,61,48,52,46,35,92,62,29,29.98,29.70,17,5,26,0.00
2013-5-17,66,53,40,48,43,37,92,70,45,30.18,29.98,9,1,13,0.00
2013-5-18,73,62,43,53,47,40,92,60,43,30.20,30.07,11,2,14,0.00
2013-5-19,81,67,51,66,57,45,92,74,52,30.08,29.90,9,1,13,0.00
2013-5-20,86,72,59,71,63,56,91,76,51,29.98,29.78,16,1,25,0.00
2013-5-21,85,73,62,71,65,59,92,78,53,29.88,29.68,13,3,21,0.01
2013-5-22,85,72,59,68,63,57,93,74,53,29.74,29.58,14,3,21,0.00
2013-5-23,73,62,45,64,57,42,92,83,68,29.89,29.63,15,6,21,0.17
2013-5-24,51,44,39,42,37,35,92,79,59,30.22,29.89,14,5,20,0.19
2013-5-25,58,48,38,40,37,34,91,67,47,30.25,30.16,15,4,23,0.00
2013-5-26,63,51,39,42,37,32,90,62,35,30.22,30.14,13,4,21,0.00
2013-5-27,70,54,38,50,42,36,93,68,34,30.25,30.05,8,1,10,0.00
2013-5-28,66,58,48,63,55,44,92,91,87,30.11,29.86,11,0,17,1.75
2013-5-29,78,70,64,67,63,60,92,81,62,29.97,29.83,19,5,31,0.67
2013-5-30,83,72,61,70,64,58,92,78,61,30.06,29.96,11,2,20,0.00
2013-5-31,86,75,63,70,65,61,92,74,52,30.00,29.86,15,3,22,0.04
2013-6-1,84,73,66,71,67,64,92,83,63,29.90,29.71,18,4,26,1.34
2013-6-2,71,67,54,67,62,49,92,83,72,29.85,29.62,20,7,32,1.27
2013-6-3,61,54,47,51,47,43,91,77,57,30.01,29.85,12,4,15,0.00
2013-6-4,68,56,45,50,45,40,92,70,39,30.14,30.01,9,2,14,0.00
2013-6-5,69,57,47,52,47,42,92,72,49,30.18,30.02,10,2,17,0.00
2013-6-6,61,57,52,59,52,43,92,86,60,30.03,29.78,9,1,13,0.79
2013-6-7,60,57,54,57,55,52,93,92,90,29.83,29.77,7,2,10,0.01
2013-6-8,63,59,57,59,56,54,93,89,80,30.04,29.79,10,2,16,0.01
2013-6-9,76,64,52,61,57,50,93,78,53,30.16,30.04,7,1,10,0.00
2013-6-10,73,66,60,69,63,57,92,89,78,30.05,29.64,10,0,18,0.22
2013-6-11,72,66,61,63,61,57,93,85,69,29.81,29.61,12,4,20,0.06
2013-6-12,77,66,54,64,58,51,93,77,52,29.88,29.70,6,0,9,0.00
2013-6-13,66,62,58,63,59,56,93,91,82,29.75,29.46,14,4,23,0.95
2013-6-14,72,61,50,62,57,48,93,85,60,29.99,29.74,9,2,13,0.00
2013-6-15,70,62,50,57,53,47,93,74,46,30.03,29.90,11,2,17,0.00
2013-6-16,76,67,60,68,62,56,92,84,68,29.90,29.66,13,3,20,0.12
2013-6-17,77,68,59,66,61,57,92,79,55,29.88,29.76,11,2,17,0.00
2013-6-18,69,62,53,59,54,48,92,76,49,29.99,29.84,11,3,16,0.00
2013-6-19,68,58,49,52,48,42,93,71,41,30.16,29.98,10,1,14,0.00
2013-6-20,76,61,44,58,50,42,96,71,42,30.21,30.15,8,1,12,0.00
2013-6-21,82,66,49,62,54,47,93,70,38,30.23,30.05,6,0,9,0.00
2013-6-22,84,72,58,71,64,56,92,77,61,30.11,29.94,15,3,25,0.00
2013-6-23,86,77,70,72,68,66,91,75,51,30.01,29.92,17,4,23,0.00
2013-6-24,83,76,70,72,68,64,86,75,62,29.99,29.87,16,4,25,0.00
2013-6-25,78,73,69,71,67,64,89,83,72,29.89,29.74,16,4,26,0.07
2013-6-26,79,73,67,72,67,64,92,82,66,29.78,29.73,11,4,17,0.00
2013-6-27,77,70,63,72,66,61,93,90,73,29.75,29.58,6,0,12,0.40
2013-6-28,71,66,63,68,64,61,93,92,90,29.59,29.44,6,0,9,1.41
2013-6-29,76,67,62,68,62,60,93,85,66,29.65,29.44,8,2,13,0.02
2013-6-30,76,68,60,67,62,58,93,83,65,29.87,29.65,9,2,16,0.00
2013-7-1,69,65,60,64,61,58,93,88,79,30.02,29.87,10,4,16,0.05
2013-7-2,73,66,60,67,63,58,93,89,82,30.04,29.98,7,2,12,0.01
2013-7-3,85,74,63,76,69,61,93,85,65,30.09,30.02,8,1,12,0.02
2013-7-4,82,74,70,73,70,67,92,86,68,30.12,30.05,9,1,17,0.02
2013-7-5,81,74,68,74,69,66,92,86,72,30.08,30.00,10,2,16,0.19
2013-7-6,83,75,67,72,69,64,93,83,66,30.09,29.97,7,1,12,0.00
2013-7-7,79,74,70,71,69,67,92,86,70,30.00,29.88,14,4,23,0.07
2013-7-8,81,74,70,73,70,67,93,86,70,30.00,29.92,10,2,18,0.00
2013-7-9,79,74,70,73,70,68,93,89,80,29.98,29.83,6,0,12,0.06
2013-7-10,82,75,70,75,71,62,93,86,74,29.84,29.63,17,5,32,0.01
2013-7-11,77,67,58,65,59,56,93,78,55,30.04,29.79,9,1,14,0.00
2013-7-12,74,67,58,67,63,56,93,87,76,30.14,29.97,8,0,10,0.00
2013-7-13,83,71,58,71,65,56,94,83,63,30.19,30.11,9,1,12,0.00
2013-7-14,88,77,65,76,70,62,93,81,59,30.25,30.18,8,1,12,0.00
2013-7-15,89,78,69,76,71,61,93,79,40,30.25,30.17,6,0,12,0.00
2013-7-16,90,79,67,78,70,65,93,78,48,30.23,30.14,7,0,10,0.00
2013-7-17,89,82,74,81,76,71,92,84,60,30.17,30.02,12,2,20,0.00
2013-7-18,90,81,75,80,75,72,92,82,65,30.05,29.88,11,2,17,0.00
2013-7-19,87,81,69,78,74,66,92,79,60,29.88,29.65,20,7,35,2.82
2013-7-20,82,74,66,73,68,62,93,83,53,29.84,29.66,14,2,22,1.02
2013-7-21,77,70,63,66,64,60,93,81,63,29.95,29.84,7,1,12,0.00
2013-7-22,78,69,58,70,64,56,93,84,66,29.95,29.72,7,1,12,0.00
2013-7-23,79,71,62,71,66,58,93,85,65,29.72,29.56,13,3,21,0.11
2013-7-24,68,61,54,58,53,50,92,75,56,30.00,29.67,10,3,18,0.00
2013-7-25,73,62,50,62,54,48,94,78,53,30.09,30.00,8,1,12,0.00
2013-7-26,78,64,49,64,56,47,94,78,52,30.09,29.95,7,1,12,0.00
2013-7-27,76,67,56,67,62,54,93,86,68,29.95,29.75,9,0,16,0.43
2013-7-28,71,66,60,64,59,54,93,79,59,29.93,29.73,12,3,23,0.02
2013-7-29,70,63,58,62,58,54,95,83,67,30.10,29.91,12,3,18,0.04
2013-7-30,74,65,56,63,59,54,93,81,60,30.16,30.09,10,2,16,0.00
2013-7-31,78,67,56,66,60,54,94,81,49,30.11,29.86,6,0,10,0.00
2013-8-1,76,68,64,69,64,61,93,88,63,29.86,29.72,16,2,22,0.85
2013-8-2,75,67,56,69,61,54,94,83,64,29.83,29.77,15,3,25,0.26
2013-8-3,75,67,59,64,59,53,93,77,50,29.90,29.78,12,3,17,0.15
2013-8-4,72,63,53,60,55,50,93,77,56,30.04,29.90,12,3,21,0.00
2013-8-5,73,61,49,62,54,47,94,79,52,30.08,29.97,8,1,14,0.00
2013-8-6,80,66,54,65,58,52,93,77,45,30.01,29.90,6,0,9,0.00
2013-8-7,81,72,62,72,66,60,93,81,66,29.92,29.79,11,2,18,0.00
2013-8-8,81,73,66,74,69,64,93,88,77,29.90,29.83,10,1,17,0.91
2013-8-9,77,70,64,70,65,60,93,84,57,29.89,29.82,10,2,14,0.63
2013-8-10,72,64,53,64,56,49,93,77,53,30.06,29.89,11,2,17,0.00
2013-8-11,75,64,51,61,56,49,94,78,51,30.10,29.99,9,1,12,0.00
2013-8-12,74,68,59,66,62,57,93,84,65,30.01,29.80,10,2,16,0.00
2013-8-13,69,63,54,66,57,48,93,82,61,29.85,29.70,15,5,23,0.40
2013-8-14,69,60,53,56,52,48,91,74,48,30.06,29.83,12,4,20,0.00
2013-8-15,72,61,50,58,53,48,93,77,54,30.10,30.03,12,3,20,0.00
2013-8-16,76,63,51,64,56,49,93,80,57,30.16,30.08,9,1,13,0.00
2013-8-17,81,65,52,66,57,50,94,77,43,30.25,30.16,6,0,9,0.00
2013-8-18,81,66,54,68,59,52,95,80,48,30.20,30.06,8,0,12,0.00
2013-8-19,80,68,56,67,61,54,94,80,56,30.08,29.99,7,1,12,0.00
2013-8-20,80,70,59,69,63,57,93,81,60,30.08,30.01,12,2,17,0.00
2013-8-21,83,71,59,70,64,57,93,81,57,30.11,29.97,10,1,15,0.00
2013-8-22,79,71,62,74,67,59,93,87,68,29.99,29.86,12,2,20,0.13
2013-8-23,74,64,54,64,57,52,94,79,52,30.16,29.95,8,2,14,0.00
2013-8-24,78,62,49,64,54,47,94,78,44,30.31,30.16,8,1,12,0.00
2013-8-25,79,66,50,65,57,48,94,74,48,30.29,30.08,12,2,18,0.00
2013-8-26,77,72,68,73,68,64,93,88,77,30.11,29.88,12,4,20,0.72
2013-8-27,82,74,68,75,71,66,93,89,77,29.90,29.81,10,1,14,0.87
2013-8-28,82,74,67,74,70,65,93,89,74,29.91,29.79,8,1,12,0.17
2013-8-29,84,72,63,76,67,61,94,84,61,30.00,29.91,8,1,12,0.00
2013-8-30,81,73,63,74,68,61,93,85,65,29.96,29.69,13,1,18,0.01
2013-8-31,79,74,67,72,69,65,93,87,74,29.79,29.65,9,2,15,0.00
2013-9-1,82,72,65,75,68,63,93,89,73,29.78,29.69,7,0,12,0.21
2013-9-2,79,70,63,74,66,56,94,86,72,29.75,29.64,15,3,21,0.01
2013-9-3,67,62,58,60,58,54,90,84,77,29.92,29.74,11,3,18,0.00
2013-9-4,74,66,54,65,59,52,93,79,49,29.96,29.91,15,4,24,0.02
2013-9-5,66,58,46,63,51,43,93,79,51,30.20,29.94,10,2,17,0.00
2013-9-6,67,55,42,56,48,40,94,80,49,30.26,30.06,8,1,13,0.00
2013-9-7,67,60,53,64,58,51,93,91,79,30.06,29.83,13,1,20,0.30
2013-9-8,68,62,49,66,55,47,93,79,54,30.07,29.82,10,3,22,0.01
2013-9-9,72,59,44,66,54,42,94,85,64,30.10,29.90,8,1,13,0.00
2013-9-10,85,77,68,75,71,65,91,81,67,29.95,29.84,19,6,28,0.05
2013-9-11,86,79,72,75,72,70,92,81,67,29.97,29.83,17,5,26,0.29
2013-9-12,74,67,56,70,64,53,93,90,77,29.89,29.68,14,2,21,0.48
2013-9-13,60,53,50,57,50,45,92,87,79,30.01,29.73,11,3,14,0.00
2013-9-14,63,53,46,53,45,36,93,75,39,30.10,30.00,8,2,12,0.00
2013-9-15,67,57,46,57,51,44,94,83,65,30.11,30.01,11,2,17,0.10
2013-9-16,55,51,41,54,48,39,94,91,75,30.35,30.03,10,2,17,0.04
2013-9-17,66,49,36,52,43,34,95,81,51,30.46,30.25,8,0,14,0.00
2013-9-18,73,55,39,60,47,38,94,78,45,30.25,30.06,7,0,12,0.00
2013-9-19,75,59,46,64,54,44,98,86,62,30.09,29.95,9,1,13,0.00
2013-9-20,80,70,53,70,64,51,94,81,69,29.96,29.68,9,2,17,0.00
2013-9-21,74,63,54,68,61,50,94,91,79,29.72,29.57,14,2,30,3.15
2013-9-22,54,52,49,50,46,43,95,82,69,30.01,29.72,13,3,15,0.00
2013-9-23,59,50,42,49,44,40,94,79,54,30.14,30.01,8,1,12,0.00
2013-9-24,64,50,38,54,44,36,94,83,44,30.14,29.99,7,1,9,0.00
2013-9-25,69,52,39,58,46,37,94,82,53,30.00,29.91,8,1,13,0.00
2013-9-26,70,54,40,58,48,38,94,82,56,30.12,29.97,9,1,12,0.00
2013-9-27,68,56,45,59,51,44,94,85,69,30.23,30.12,8,1,13,0.00
2013-9-28,76,58,44,64,52,42,94,82,52,30.25,30.11,3,0,8,0.01
2013-9-29,75,60,46,64,54,44,94,82,55,30.11,29.94,9,1,15,0.00
2013-9-30,72,64,56,63,59,54,93,87,72,29.96,29.90,10,2,17,0.00
2013-10-1,71,65,56,64,60,54,94,86,70,29.98,29.86,13,3,20,0.00
2013-10-2,75,66,52,65,62,50,93,85,67,30.05,29.87,11,3,15,0.00
2013-10-3,70,58,44,60,51,42,94,80,47,30.09,29.97,5,0,8,0.00
2013-10-4,72,65,60,69,63,57,94,93,87,30.01,29.94,8,0,12,0.95
2013-10-5,65,61,59,63,59,56,94,93,91,30.06,29.95,7,2,12,0.55
2013-10-6,82,68,59,73,64,57,94,89,69,29.95,29.62,7,1,17,0.90
2013-10-7,75,59,49,66,54,46,93,82,65,30.02,29.59,20,7,31,0.59
2013-10-8,65,52,43,53,47,42,94,82,52,30.31,30.02,5,1,10,0.00
2013-10-9,69,52,39,54,45,37,94,80,42,30.36,30.23,6,0,8,0.00
2013-10-10,70,52,40,54,44,39,94,79,37,30.25,30.10,7,0,9,0.00
2013-10-11,71,54,42,57,47,41,94,81,44,30.14,30.07,9,1,13,0.00
2013-10-12,77,56,40,60,47,39,94,76,34,30.15,30.06,8,0,12,0.00
2013-10-13,67,60,49,62,56,47,93,89,74,30.23,30.11,9,1,16,0.40
2013-10-14,63,55,44,58,50,42,93,83,57,30.31,30.23,7,1,12,0.09
2013-10-15,69,54,42,58,50,40,94,86,65,30.26,29.88,7,0,12,0.00
2013-10-16,68,62,54,61,57,49,93,85,71,29.88,29.69,10,4,21,0.48
2013-10-17,60,55,50,53,50,47,94,85,68,29.83,29.65,10,2,16,0.48
2013-10-18,59,52,47,50,46,40,93,79,55,29.86,29.69,18,6,28,0.01
2013-10-19,58,51,44,54,47,41,94,87,69,29.84,29.62,12,3,17,0.40
2013-10-20,54,47,40,46,42,37,93,83,62,29.94,29.74,12,4,20,0.00
2013-10-21,65,54,45,50,44,41,94,71,42,29.92,29.74,16,4,26,0.15
2013-10-22,51,45,40,49,36,29,93,71,53,29.83,29.72,18,7,28,0.20
2013-10-23,47,40,34,41,36,32,93,85,66,29.80,29.68,14,2,18,0.06
2013-10-24,47,39,34,37,34,31,90,82,61,30.01,29.77,19,6,28,0.00
2013-10-25,48,42,36,42,36,33,94,81,64,30.17,30.01,13,3,18,0.00
2013-10-26,45,43,39,41,37,32,92,80,65,30.09,29.74,22,8,36,0.42
2013-10-27,48,41,36,40,36,32,93,83,66,30.02,29.79,11,3,15,0.01
2013-10-28,47,41,28,40,33,23,92,74,47,30.37,29.99,11,3,18,0.00
2013-10-29,47,38,27,35,31,25,94,78,52,30.45,30.27,6,1,10,0.00
2013-10-30,59,45,37,44,39,35,94,81,52,30.27,30.05,5,0,7,0.01
2013-10-31,66,56,40,60,52,38,94,89,74,30.05,29.29,16,4,26,0.98
2013-11-1,63,55,48,59,50,43,93,82,72,29.62,29.09,32,12,50,0.41
2013-11-2,49,44,37,46,42,33,93,90,84,30.00,29.56,11,4,16,0.13
2013-11-3,37,33,24,33,26,22,92,77,60,30.52,30.00,9,2,13,0.01
2013-11-4,41,32,22,33,24,20,94,74,50,30.63,30.41,9,1,12,0.00
2013-11-5,59,44,28,39,33,26,93,67,46,30.43,30.28,8,1,14,0.00
2013-11-6,66,55,44,57,46,35,93,72,56,30.28,29.75,16,4,26,0.40
2013-11-7,57,43,38,54,37,30,93,79,67,29.98,29.75,16,7,27,0.13
2013-11-8,41,38,34,34,31,29,88,76,66,30.22,29.95,15,6,22,0.00
2013-11-9,51,43,32,46,35,29,91,73,50,30.20,29.75,14,4,22,0.06
2013-11-10,50,43,38,44,36,31,92,74,67,30.16,29.75,22,9,31,0.03
2013-11-11,45,38,30,40,33,24,92,83,71,30.16,29.90,21,6,28,0.32
2013-11-12,33,29,26,26,21,16,84,73,58,30.41,30.12,15,5,22,0.00
2013-11-13,39,33,25,30,25,19,86,72,55,30.42,30.07,23,8,35,0.00
2013-11-14,48,44,39,34,30,26,77,60,43,30.08,29.97,21,12,38,0.00
2013-11-15,51,47,43,39,32,28,78,57,46,30.07,30.00,17,6,24,0.00
2013-11-16,60,47,34,45,38,30,92,72,53,30.19,29.95,10,2,15,0.00
2013-11-17,64,58,50,57,52,44,92,80,72,29.95,29.28,16,5,26,0.44
2013-11-18,56,45,36,47,36,28,84,71,63,29.92,29.32,28,15,44,0.02
2013-11-19,38,33,23,28,25,21,91,73,60,30.45,29.92,16,5,25,0.00
2013-11-20,41,30,19,29,22,17,93,76,55,30.56,30.39,8,2,13,0.00
2013-11-21,45,37,24,38,30,21,93,78,56,30.39,30.21,9,1,16,0.09
2013-11-22,48,42,31,46,40,27,94,91,80,30.20,29.97,18,4,28,0.31
2013-11-23,33,28,19,27,20,9,85,73,56,30.23,30.02,21,9,30,0.00
2013-11-24,24,20,16,19,13,9,92,75,60,30.43,30.23,13,7,20,0.00
2013-11-25,36,29,17,30,18,11,87,66,45,30.39,30.07,19,7,31,0.00
2013-11-26,35,34,33,33,31,29,94,91,80,30.11,29.79,15,2,25,0.06
2013-11-27,34,30,23,32,26,17,94,86,71,29.94,29.66,15,5,21,0.01
2013-11-28,27,23,18,22,17,14,91,79,59,30.41,29.94,13,3,18,0.02
2013-11-29,30,20,8,21,15,5,93,81,58,30.72,30.41,5,0,7,0.12
2013-11-30,37,23,6,27,16,4,91,76,59,30.70,30.17,10,2,17,0.01
2013-12-1,41,36,29,34,30,26,89,80,66,30.17,29.92,8,1,13,0.11
2013-12-2,37,34,26,35,31,23,93,89,85,29.92,29.84,5,1,6,0.00
2013-12-3,40,30,20,34,26,19,94,84,63,29.98,29.89,5,1,10,0.00
2013-12-4,51,40,34,43,36,29,93,86,71,29.98,29.80,6,0,13,0.01
2013-12-5,60,51,38,53,45,33,93,80,71,30.01,29.68,19,7,26,0.01
2013-12-6,37,33,30,33,27,22,93,78,70,30.25,30.00,10,4,14,0.03
2013-12-7,30,26,21,23,18,13,82,71,60,30.57,30.24,14,6,20,0.00
2013-12-8,28,24,16,25,17,12,91,76,62,30.57,29.95,7,2,13,0.00
2013-12-9,39,32,26,37,29,22,94,86,76,30.15,29.83,24,8,37,0.04
2013-12-10,29,23,20,22,15,10,98,70,60,30.07,29.89,20,10,26,0.00
2013-12-11,25,21,13,17,12,8,82,71,63,30.31,30.07,22,9,30,0.00
2013-12-12,21,16,11,18,9,2,89,73,59,30.34,30.07,19,9,26,0.00
2013-12-13,25,18,13,20,14,9,88,82,70,30.40,30.05,17,5,26,0.00
2013-12-14,18,14,12,16,11,8,91,87,79,30.41,29.73,12,4,20,0.00
2013-12-15,25,19,12,22,15,7,93,84,70,29.97,29.62,20,6,30,0.00
2013-12-16,21,12,-5,12,5,-9,85,75,61,30.17,29.87,16,4,27,0.03
2013-12-17,28,17,-7,26,13,-11,92,86,76,30.14,29.91,14,2,20,0.00
2013-12-18,31,28,22,25,22,19,91,80,70,30.04,29.92,18,6,26,0.00
2013-12-19,41,35,27,34,29,19,91,78,70,30.01,29.85,18,5,27,0.26
2013-12-20,43,39,34,42,38,32,94,94,91,29.97,29.74,9,1,14,0.84
2013-12-21,52,39,33,51,38,31,95,94,92,29.84,29.66,14,3,20,1.11
2013-12-22,42,36,32,40,34,31,94,94,90,29.93,29.58,10,2,17,1.52
2013-12-23,39,33,25,36,30,18,93,87,75,30.26,29.91,13,5,21,0.00
2013-12-24,25,20,10,22,16,6,91,85,77,30.50,30.19,9,3,13,0.00
2013-12-25,27,12,-4,20,7,-7,97,81,68,30.52,30.18,7,0,12,0.00
2013-12-26,31,27,19,28,22,13,93,80,71,30.27,30.03,15,5,22,0.03
2013-12-27,36,28,19,31,24,13,93,84,72,30.26,30.04,14,4,20,0.01
2013-12-28,43,38,31,35,32,28,92,80,68,30.07,29.89,18,7,31,0.09
2013-12-29,46,41,26,38,31,20,90,70,48,29.89,29.59,18,6,26,0.00
2013-12-30,26,19,14,20,11,7,80,73,63,30.21,29.76,16,6,25,0.00
2013-12-31,22,18,13,20,11,5,91,76,61,30.24,29.95,24,7,35,0.00
2014-1-1,20,16,12,13,9,5,88,75,60,30.40,30.23,13,5,21,0.00
2014-1-2,14,10,5,11,7,1,96,87,85,30.29,30.00,17,8,25,0.00